Hourly Weather Roundup
Issued by NWS Central Illinois

Home | Current Version | Previous Version | Text Only | Print | Product List | Glossary On
Versions: 1 2 3 4 5 6 7 8 9 10 11 12 13 14 15 16 17 18 19 20 21 22 23 24 25 26 27 28 29 30 31 32 33 34 35 36 37 38 39 40 41 42 43 44 45 46 47 48 49 50
000
NZUS43 KILX 260510
HWRILX

AREA WEATHER ROUNDUP
NATIONAL WEATHER SERVICE, LINCOLN IL
1200 AM CDT THU MAY 26 2016


CITY           SKY/WX    TMP DP  RH WIND       PRES   REMARKS
BLOOMINGTON    CLEAR     70  68  93 S12       29.97F
CHAMPAIGN      CLOUDY    69  65  86 S8        29.99S
DANVILLE       CLOUDY    70  65  84 S7        29.97S
DECATUR        CLEAR     71  66  84 S9        29.97S
EFFINGHAM      CLOUDY    69  69  99 SE5       30.02R
FLORA          PTCLDY    69  67  93 S7        30.01S
GALESBURG      CLEAR     71  64  78 S6        29.92S
JACKSONVILLE   CLEAR     72  64  76 S3        29.95S
LACON          CLEAR     72  65  78 S6        29.92F
LAWRENCEVILLE  PTCLDY    69  65  86 S10       30.02F
LITCHFIELD     CLEAR     69  64  84 S10       29.98S
$$


CITY           SKY/WX    TMP DP  RH WIND       PRES   REMARKS
LINCOLN        CLEAR     72  67  85 CALM      29.95S
MACOMB         CLEAR     73  64  73 S13       29.94F
MATTOON        CLOUDY    70  65  84 S9        29.98F
MT CARMEL AP   MOCLDY    69  64  85 SW8       30.02S
OLNEY-NOBLE AP MOCLDY    68  66  94 S6        30.02R
PARIS          CLOUDY    70  66  87 S7        30.01F
PEORIA         CLEAR     72  65  78 S8        29.93S
PONTIAC        CLEAR     75  67  76 S10       29.96S
RANTOUL        CLOUDY    70  65  84 S9        29.99S
ROBINSON       CLOUDY    68  65  89 S7        30.02F
SPRINGFIELD    CLEAR     72  66  81 S13       29.95F
TAYLORVILLE    CLEAR     70  66  89 S10       29.97S
$$

...REGIONAL REPORTS...


CITY           SKY/WX    TMP DP  RH WIND       PRES   REMARKS
CHICAGO O`HARE CLOUDY    66  65  96 SE14      29.94F
KANKAKEE       CLEAR    N/A N/A N/A S9        29.97S
MOLINE         PTCLDY    73  61  65 S7        29.89S
MOUNT STERLING PTCLDY    70  64  82 S7        29.93S
MOUNT VERNON   CLEAR     68  61  77 SW9       30.03R
PITTSFIELD     CLEAR     72  65  79 S6        29.95F
QUINCY         MOCLDY    73  65  75 S7        29.93S
ROCKFORD       PTCLDY    67  63  87 SE6       29.93F
$$


CITY           SKY/WX    TMP DP  RH WIND       PRES   REMARKS
BURLINGTON     MOCLDY    71  65  81 S8        29.90S
CEDAR RAPIDS   CLOUDY    70  62  76 SE3       29.88S
DES MOINES     CLOUDY    74  65  73 S5        29.86R
KIRKSVILLE     CLOUDY    69  64  84 S5        29.90F
OTTUMWA        CLOUDY    74  63  68 S7        29.88R
ST LOUIS       CLEAR     74  65  73 S9        29.97F
$$


CITY           SKY/WX    TMP DP  RH WIND       PRES   REMARKS
TERRE HAUTE    MOCLDY    69  64  84 S7        30.01F
EVANSVILLE     CLOUDY    67  63  87 SW8       30.04F
INDIANAPOLIS   CLOUDY    70  62  76 SW8       30.01F
LAFAYETTE      CLOUDY    70  62  76 S6        29.99S
MADISON        PTCLDY    69  63  81 S8        29.88F
MILWAUKEE      MOCLDY    60  58  92 SE5       29.91F
$$






USA.gov is the U.S. government's official web portal to all federal, state and local government web resources and services.